OPS 4682 DEB, 20031

Orbit data source: Space-Track

OPS 4682 DEB, 20031 is space debris in LEO originally from a launch on Sat, 03 Apr 1965 UTC launched from the Air Force Western Test Range (AFWTR). Debris objects in space refer to the collection of defunct objects orbiting the Earth. Examples of debris include non-operational satellites, rocket bodies, and fragments generated from explosions, collisions, or faulty payload assembly.

Loading next visibility...
Identifier
20031, 1965-027BB
Orbit
LEO
Country
Flag of USUS
Related business
Manufacturer
Unknown
Mission
Spacecraft
Bus & Motor
Unknown
Mass
Unknown
Launch date (UTC)
1965-04-03 (61 years ago)
Launch vehicle
Unknown
Launch site
Air Force Western Test Range (AFWTR)
Object type
Payload
Rocket body
Debris
Shape & HBR
Unknown shape, 0.1 m
Radar Cross Section
Small (<0.1 m²)

Expand to show TLE details & history
Last TLE update: 1 day ago

TLE from 1 day ago
0 OPS 4682 DEB
1 20031U 65027BB  25303.16191394  .00000545  00000-0  18390-2 0  9990
2 20031  90.2324 354.4351 0029890 301.2003 114.1506 12.97825196737375
Epoch: 2025-10-30T03:53Z
TLE epoch observation values (Epoch: 2025-10-30T03:53:09.364Z)
Latitude
55.75307°
Longitude
-102.91824°
Altitude
1,289.361 km
Speed
7.212 km/s
True Right ascension
23h 36m 22s
True Declination
55° 36' 14"
Sunlit
Object was in full shadow at epoch
Visualization orbit readout
Latitude
Unknown
Longitude
Unknown
Altitude
Unknown
Speed
Unknown
Apparent Right ascension
Unknown
Apparent Declination
Unknown
Sunlit
N/A
Visualization observer readout
Local Sidereal Time
07:22:38
Azimuth
Unknown
Elevation
Unknown
Doppler factor
Unknown
Orbital elements
Apogee altitude
1,290.603 km
Perigee altitude
1,244.896 km
Semi-major axis
7,645.887 km
Eccentricity
0.00299
Inclination
90.2324°
RAAN
354.4351°
Arg. of periapsis
301.2003°
True anomaly
114.46266°
Mean anomaly
114.1506°
Eccentric anomaly
114.30668°
Mean motion
3.2464 °/min
Orbital period
110.89 mins
BSTAR
0.001839
Loading maneuver chart data...
Computing Atmospheric mass density...
Loading historical data...
Loading historical data...
Loading historical data...
Loading historical data...
Loading historical data...
Loading historical data...
Loading historical data...

Documentation

Showing up to 5 results
|